TITAN 3C TRANSTAGE DEB, 43453

Orbit data source: Space-Track

TITAN 3C TRANSTAGE DEB, 43453 is space debris in GEO originally from a launch on Sun, 09 Feb 1969 UTC launched from the Air Force Eastern Test Range (AFETR). Debris objects in space refer to the collection of defunct objects orbiting the Earth. Examples of debris include non-operational satellites, rocket bodies, and fragments generated from explosions, collisions, or faulty payload assembly.

Loading next visibility...
Identifier
43453, 1969-013L
Orbit
GEO
Country
Flag of USUS
Related business
Manufacturer
Martin Marietta
Mission
Spacecraft
Bus & Motor
Unknown
Mass
Unknown
Launch date (UTC)
1969-02-09 (57 years ago)
Launch vehicle
Unknown
Launch site
Air Force Eastern Test Range (AFETR)
Object type
Payload
Rocket body
Debris
Shape & HBR
Unknown shape, 1.1 m
Radar Cross Section
RCS unknown

Expand to show TLE details & history
Last TLE update: 1 day ago

TLE from 1 day ago
0 TITAN 3C TRANSTAGE DEB
1 43453U 69013L   26034.52959259 -.00000089  00000-0  00000-0 0  9997
2 43453   1.3633 147.3876 0624930 329.0834  26.6583  1.07376536 30603
Epoch: 2026-02-03T12:42Z
TLE epoch observation values (Epoch: 2026-02-03T12:42:36.799Z)
Latitude
0.00001°
Longitude
-177.74607°
Altitude
31,679.008 km
Speed
3.325 km/s
True Right ascension
09h 46m 27s
True Declination
0° 00' 00"
Sunlit
Object was in daylight at epoch
Visualization orbit readout
Latitude
Unknown
Longitude
Unknown
Altitude
Unknown
Speed
Unknown
Apparent Right ascension
Unknown
Apparent Declination
Unknown
Sunlit
N/A
Visualization observer readout
Local Sidereal Time
16:10:43
Azimuth
Unknown
Elevation
Unknown
Doppler factor
Unknown
Orbital elements
Apogee altitude
36,424.163 km
Perigee altitude
31,389.129 km
Semi-major axis
40,284.783 km
Eccentricity
0.06249
Inclination
1.3633°
RAAN
147.3876°
Arg. of periapsis
329.0834°
True anomaly
30.10953°
Mean anomaly
26.6583°
Eccentric anomaly
28.35906°
Mean motion
0.26843 °/min
Orbital period
1,341.13 mins
BSTAR
0
Loading maneuver chart data...
Computing Atmospheric mass density...

Documentation

Showing up to 5 results
|